Regional Weather Roundup
Issued by NWS

Home | Current Version | Previous Version | Text Only | Print | Product List | Glossary On
Versions: 1 2 3 4 5 6 7 8 9 10 11 12 13 14 15 16 17 18 19 20 21 22 23 24 25 26 27 28 29 30 31 32 33 34 35 36 37 38 39 40 41 42 43 44 45 46 47 48 49 50
000
ASUS43 KLSX 172307
RWRMO

WEATHER SUMMARY FOR MISSOURI
NATIONAL WEATHER SERVICE SPRINGFIELD MO
600 PM CDT THU APR 17 2014

NOTE: "FAIR" INDICATES FEW OR NO CLOUDS BELOW 12,000 FEET WITH NO
       SIGNIFICANT WEATHER AND/OR OBSTRUCTIONS TO VISIBILITY.
       CURRENT SKY AND/OR WEATHER CONDITIONS ARE NOT AVAILABLE FOR
       CHILLICOTHE AND FARMINGTON.

MOZ001>031-035>038-043-044-053-054-180000-
...NORTHERN AND WESTERN MISSOURI...

CITY           SKY/WX    TMP DP  RH WIND       PRES   REMARKS
KANSAS CTY INT PTSUNNY   49  32  52 CALM      30.27S
KANSAS C DTWN  PTSUNNY   50  33  52 CALM      30.28S
LEE`S SUMMIT   CLOUDY    46  34  62 CALM      30.29R
ST JOSEPH      MOSUNNY   54  30  40 VRB5      30.26S
CHILLICOTHE      N/A     52  33  48 CALM      30.29R
KIRKSVILLE     CLOUDY    51  34  52 S5        30.27R

$$
MOZ066>068-077>081-088>096-101>105-180000-
...SOUTHWEST MISSOURI...

CITY           SKY/WX    TMP DP  RH WIND       PRES   REMARKS
SPRINGFIELD    PTSUNNY   60  40  47 N12       30.22R
JOPLIN         CLOUDY    57  41  55 N9        30.25R

$$
MOZ032>034-039>042-045>050-055>058-069>072-180000-
...CENTRAL MISSOURI...

CITY           SKY/WX    TMP DP  RH WIND       PRES   REMARKS
COLUMBIA       CLOUDY    51  39  63 N8        30.27R
JEFFERSON CITY CLOUDY    55  38  52 NW12      30.26R
ROLLA          CLOUDY    59  41  51 NW10      30.21S
SEDALIA        LGT RAIN  47  39  74 NW7       30.29R
WHITEMAN AFB   LGT RAIN  45  37  71 N6        30.28S
OSAGE BEACH    PTSUNNY   57  37  47 N6        30.25S

$$
MOZ051-052-059>065-180000-
...EAST CENTRAL MISSOURI...

CITY           SKY/WX    TMP DP  RH WIND       PRES   REMARKS
ST LOUIS INTL  CLOUDY    64  39  39 N8        30.23R
SPIRIT OF STL  CLOUDY    62  39  42 N6        30.22R
ST CHARLES     CLOUDY    62  39  42 W5        30.22S

$$
MOZ072>076-082>087-097>100-106>115-180000-
...SOUTH CENTRAL AND SOUTHEAST MISSOURI...

CITY           SKY/WX    TMP DP  RH WIND       PRES   REMARKS
CAPE GIRARDEAU SUNNY     65  45  48 SW7       30.23F
FARMINGTON     SUNNY     66  30  26 S8        30.22S
POPLAR BLUFF   SUNNY     67  39  35 S6        30.21F
WEST PLAINS    PTSUNNY   66  32  28 SW5       30.20F

$$



USA.gov is the U.S. government's official web portal to all federal, state and local government web resources and services.